Вернуться в каталог

COSMOS 411

АктивенВоенныеLEO
NORAD 5210·PAYLOAD·🇷🇺 Russia

Запущен May 7, 1971 с Plesetsk Cosmodrome

Loading…

Ближайшие Пролёты (ближайшие 24 часа)

TLE

СвежийSource: Space-Track

Эпоха: Sep 14, 2026, 03:26 UTC

1 05210U 71041A   26257.14360339  .00000007  00000-0  12462-3 0  9997
2 05210  74.0162 160.7067 0112361 210.0049 220.7764 12.65000434556118

Отслеживайте COSMOS 411 в реальном времени с AllMySat

Download on the App Store